• Join FlightAware (Why Join?)
  • Login
  • US Flag 
04:46AM EDT


 

Airport Tracker/Info


-or-


 

Live Flight TrackerFlight Track Log ✈ FSR411 ✈ 20-Aug-2013 ✈ KISM - KAUS

Flight Track Log - Related Links

Times and Time Zones

All times are in EDT time to prevent confusion due to time zone crossing. See the FSR411 flight status page for this flight to view local times or setup timezone preferences in your user account.

Time Position Orientation Groundspeed Altitude Reporting Facility
EDT Latitude Longitude Course Direction KTS MPH feet Rate Location/Type
08:03AM 28.2833 -81.4333 156° South 142 163 600  Level Orlando TRACON
08:03AM 28.2500 -81.4167 156° South 171 197 1,800 2,460 Climbing Orlando TRACON
08:04AM 28.2000 -81.4167 180° South 254 292 4,300 2,640 Climbing Orlando TRACON
08:05AM 28.2167 -81.5000 283° West 280 322 7,100 2,820 Climbing Orlando TRACON
08:06AM 28.2000 -81.5833 257° West 306 352 10,100 2,880 Climbing Orlando TRACON
08:08AM 28.2242 -81.7667 279° West 339 390 15,100 2,820 Climbing Jacksonville Center
08:09AM 28.2442 -81.8864 281° West 367 422 17,900 2,880 Climbing Jacksonville Center
08:10AM 28.2597 -82.0158 278° West 399 459 20,900 2,940 Climbing Jacksonville Center
08:11AM 28.3042 -82.1358 293° West 408 470 23,800 2,460 Climbing Jacksonville Center
08:12AM 28.3694 -82.2461 304° West 413 475 25,900 1,920 Climbing Jacksonville Center
08:13AM 28.4369 -82.3639 303° West 427 491 27,700 1,860 Climbing Jacksonville Center
08:14AM 28.5083 -82.4792 305° West 443 510 29,700 1,800 Climbing Jacksonville Center
08:15AM 28.6169 -82.5450 332° Northwest 437 503 31,300 1,620 Climbing Jacksonville Center
08:16AM 28.7381 -82.6036 337° Northwest 432 497 33,000 1,560 Climbing Jacksonville Center
08:17AM 28.8531 -82.6603 337° Northwest 427 491 34,500 1,380 Climbing Jacksonville Center
08:18AM 28.9617 -82.7194 335° Northwest 432 497 35,800 1,140 Climbing Jacksonville Center
08:19AM 29.0722 -82.7761 336° Northwest 437 503 36,800 1,080 Climbing Jacksonville Center
08:20AM 29.1831 -82.8331 336° Northwest 437 503 38,000 1,320 Climbing Jacksonville Center
08:21AM 29.2917 -82.8903 335° Northwest 437 503 39,500 960 Climbing Jacksonville Center
08:22AM 29.4000 -82.9450 336° Northwest 427 491 40,000 180 Climbing Jacksonville Center
08:23AM 29.5169 -83.0072 335° Northwest 433 498 39,900 -60 Descending Jacksonville Center
08:24AM 29.6128 -83.0956 321° Northwest 444 511 39,900  Level Jacksonville Center
08:25AM 29.6647 -83.2294 294° West 450 518 40,000  Climbing Jacksonville Center
08:26AM 29.7061 -83.3542 291° West 462 532 40,000  Level Jacksonville Center
08:27AM 29.7514 -83.4883 291° West 457 526 40,000  Level Jacksonville Center
08:28AM 29.7989 -83.6203 293° West 451 519 40,000  Level Jacksonville Center
08:29AM 29.8461 -83.7522 292° West 451 519 40,000  Level Jacksonville Center
08:30AM 29.8931 -83.8867 292° West 451 519 40,000  Level Jacksonville Center
08:31AM 29.9381 -84.0192 291° West 451 519 40,000  Level Jacksonville Center
08:32AM 29.9825 -84.1517 291° West 451 519 40,000  Level Jacksonville Center
08:33AM 30.0294 -84.2792 293° West 444 511 40,000  Level Jacksonville Center
08:34AM 30.0736 -84.4119 291° West 444 511 40,000  Level Jacksonville Center
08:35AM 30.1200 -84.5472 292° West 450 518 40,000  Level Jacksonville Center
08:36AM 30.1642 -84.6800 291° West 450 518 40,000  Level Jacksonville Center
08:37AM 30.2103 -84.8156 292° West 450 518 40,000  Level Jacksonville Center
08:38AM 30.2394 -84.9556 284° West 450 518 40,000  Level Jacksonville Center
08:39AM 30.2600 -85.0978 280° West 443 510 40,000  Level Jacksonville Center
08:40AM 30.2825 -85.2403 280° West 450 518 40,000  Level Jacksonville Center
08:41AM 30.3050 -85.3803 281° West 450 518 40,000  Level Jacksonville Center
08:42AM 30.3308 -85.5375 281° West 450 518 40,000  Level Jacksonville Center
08:43AM 30.3508 -85.6775 279° West 450 518 40,000  Level Jacksonville Center
08:44AM 30.3728 -85.8203 280° West 450 518 40,000  Level Jacksonville Center
08:45AM 30.3903 -85.9606 278° West 450 518 40,000  Level Jacksonville Center
08:46AM 30.4142 -86.1008 281° West 450 518 40,000  Level Jacksonville Center
08:47AM 30.4314 -86.2389 278° West 450 518 40,000  Level Jacksonville Center
08:48AM 30.4528 -86.3792 280° West 450 518 40,000  Level Jacksonville Center
08:49AM 30.4758 -86.5222 281° West 450 518 40,000  Level Jacksonville Center
08:50AM 30.4947 -86.6603 279° West 450 518 40,000  Level Jacksonville Center
08:51AM 30.5156 -86.8011 280° West 450 518 40,000  Level Jacksonville Center
08:52AM 30.5364 -86.9394 280° West 450 518 40,000  Level Jacksonville Center
08:53AM 30.5531 -87.0631 279° West 445 512 40,000  Level Jacksonville Center
08:54AM 30.5547 -87.2053 271° West 445 512 40,000  Level Jacksonville Center
08:56AM 30.5406 -87.5200 267° West 442 509 40,000  Level Houston Center
08:57AM 30.5333 -87.6628 267° West 443 510 40,000  Level Houston Center
08:58AM 30.5272 -87.8069 267° West 445 512 40,000  Level Houston Center
08:59AM 30.5183 -87.9786 267° West 442 509 40,000  Level Houston Center
09:00AM 30.5117 -88.1083 267° West 443 510 40,000  Level Houston Center
09:01AM 30.5069 -88.2497 268° West 441 507 40,000  Level Houston Center
09:02AM 30.4978 -88.3914 266° West 440 506 40,000  Level Houston Center
09:03AM 30.4903 -88.5611 267° West 440 506 40,000  Level Houston Center
09:04AM 30.4828 -88.7017 266° West 439 505 40,000  Level Houston Center
09:05AM 30.4750 -88.8428 266° West 440 506 40,000  Level Houston Center
09:07AM 30.4694 -88.9828 267° West 438 504 40,000  Level Houston Center
09:08AM 30.4600 -89.1244 266° West 440 506 40,000  Level Houston Center
09:09AM 30.4519 -89.2658 266° West 441 507 40,000  Level Houston Center
09:10AM 30.4442 -89.4064 266° West 440 506 40,000  Level Houston Center
09:11AM 30.4350 -89.5747 266° West 442 509 40,000  Level Houston Center
09:12AM 30.4264 -89.7131 266° West 441 507 40,000  Level Houston Center
09:13AM 30.4064 -89.8708 262° West 448 516 40,000  Level Houston Center
09:14AM 30.4025 -89.9892 268° West 438 504 40,000  Level Houston Center
09:15AM 30.3894 -90.1556 265° West 436 502 40,000  Level Houston Center
09:16AM 30.3775 -90.2958 264° West 438 504 40,000  Level Houston Center
09:17AM 30.3667 -90.4347 265° West 436 502 40,000  Level Houston Center
09:18AM 30.3553 -90.5761 265° West 440 506 40,000  Level Houston Center
09:19AM 30.3428 -90.7167 264° West 441 507 40,000  Level Houston Center
09:20AM 30.3317 -90.8578 265° West 441 507 40,000  Level Houston Center
09:21AM 30.3167 -91.0258 264° West 440 506 40,000  Level Houston Center
09:22AM 30.3053 -91.1667 265° West 440 506 40,000  Level Houston Center
09:23AM 30.2936 -91.3050 264° West 435 501 40,000  Level Houston Center
09:24AM 30.2800 -91.4442 264° West 435 501 40,000  Level Houston Center
09:25AM 30.2692 -91.5833 265° West 436 502 40,000  Level Houston Center
09:26AM 30.2578 -91.7411 265° West 434 499 40,000  Level Houston Center
09:27AM 30.2417 -91.8881 263° West 435 501 40,000  Level Houston Center
09:28AM 30.2289 -92.0272 264° West 435 501 40,000  Level Houston Center
09:29AM 30.2164 -92.1658 264° West 434 499 40,000  Level Houston Center
09:30AM 30.2036 -92.3044 264° West 434 499 40,000  Level Houston Center
09:31AM 30.2036 -92.4356 270° West 437 503 40,000  Level Houston Center
09:32AM 30.2008 -92.6039 269° West 437 503 40,000  Level Houston Center
09:33AM 30.1986 -92.7431 269° West 435 501 40,000  Level Houston Center
09:34AM 30.1922 -92.8831 267° West 436 502 40,000  Level Houston Center
09:35AM 30.1789 -93.0228 264° West 438 504 40,000  Level Houston Center
09:36AM 30.1622 -93.1611 262° West 435 501 40,000  Level Houston Center
09:37AM 30.1464 -93.3017 263° West 438 504 40,000  Level Houston Center
09:38AM 30.1286 -93.4419 262° West 437 503 40,000  Level Houston Center
09:39AM 30.1128 -93.5836 263° West 439 505 40,000  Level Houston Center
09:41AM 30.0964 -93.7244 262° West 437 503 40,000  Level Houston Center
09:42AM 30.0764 -93.8917 262° West 434 499 40,000  Level Houston Center
09:43AM 30.0589 -94.0322 262° West 441 507 40,000 -660 Level Houston Center
09:44AM 30.0422 -94.1725 262° West 441 507 38,700 -1,440 Descending Houston Center
09:45AM 30.0256 -94.3133 262° West 443 510 37,100 -1,200 Descending Houston Center
09:46AM 30.0067 -94.4533 261° West 443 510 36,300 -780 Descending Houston Center
09:47AM 29.9889 -94.6078 262° West 442 509 35,600 -720 Descending Houston Center
09:48AM 29.9714 -94.7483 262° West 445 512 34,900 -660 Descending Houston Center
09:49AM 29.9531 -94.8886 261° West 445 512 34,300 -660 Descending Houston Center
09:50AM 29.9358 -95.0292 262° West 447 514 33,600 -780 Descending Houston Center
09:51AM 29.9142 -95.1972 262° West 447 514 32,800 -720 Descending Houston Center
09:52AM 29.8950 -95.3375 261° West 449 517 32,200 -660 Descending Houston Center
09:53AM 29.8764 -95.4800 261° West 453 521 31,500 -840 Descending Houston Center
09:54AM 29.8569 -95.6225 261° West 456 525 30,500 -1,320 Descending Houston Center
09:55AM 29.8364 -95.7664 261° West 458 527 28,800 -1,860 Descending Houston Center
09:56AM 29.8128 -95.9414 261° West 463 533 26,700 -2,040 Descending Houston Center
09:57AM 29.7911 -96.0922 261° West 458 527 24,700 -1,620 Descending Houston Center
09:58AM 29.7811 -96.2386 266° West 461 531 23,400 -840 Descending Houston Center
09:59AM 29.8178 -96.3764 287° West 454 522 23,000 -300 Descending Houston Center
10:00AM 29.8803 -96.5047 299° West 461 531 22,900 -1,620 Descending Houston Center
10:01AM 29.9350 -96.6236 298° West 424 488 19,700 -3,660 Descending Houston Center
10:02AM 29.9897 -96.7389 299° West 414 476 15,400 -3,780 Descending Houston Center
10:03AM 30.0483 -96.8683 298° West 383 441 12,000 -2,580 Descending Houston Center
10:04AM 30.0839 -96.9617 294° West 326 375 10,100 -1,740 Descending Houston Center
10:05AM 30.1222 -97.0500 297° West 303 349 8,500 -1,500 Descending Houston Center
10:06AM 30.1547 -97.1383 293° West 295 339 7,000 -1,260 Descending Houston Center
10:07AM 30.1850 -97.2261 292° West 292 336 5,900 -1,320 Descending Houston Center
10:08AM 30.2142 -97.3114 292° West 285 328 4,300 -1,500 Descending Houston Center
10:09AM 30.2353 -97.3992 286° West 280 322 2,800 -900 Descending Houston Center
10:10AM 30.2539 -97.4811 285° West 269 310 2,500 -240 Descending Houston Center
10:11AM 30.2747 -97.5683 285° West 247 284 2,400 -300 Descending Houston Center
10:12AM 30.2825 -97.6339 278° West 226 260 2,000 -480 Descending Houston Center
10:14AM 30.2628 -97.6806 244° Southwest 189 217 1,500 -540 Descending Houston Center
10:15AM 30.2306 -97.6811 181° South 156 180 900 -600 Descending Houston Center
10:17AM 30.1945 -97.6699 180° South  Level Estimated